User: anonymous   Login
Location: Unspecified
(0.0000°N, 0.0000°E)
Time: 04:45:46
(UTC+00:00)
Language:

GSAT 7 - Orbit

View from above orbital plane
View from above orbital plane
View from above satellite
View from above satellite

Ground track
Ground track

The orbit data is extracted from the following two-line orbital elements,

1 39234U 13044B   15242.69018661 -.00000102  00000-0  00000+0 0  9997
2 39234 000.0539 266.2743 0007871 358.6827 036.0783 01.00272423  7355
Epoch (UTC): 30 August 2015 16:33:52
Eccentricity: 0.0007871
inclination: 0.0539°
perigee height: 35753 km
apogee height: 35819 km
right ascension of ascending node: 266.2743°
argument of perigee: 358.6827°
revolutions per day: 1.00272423
mean anomaly at epoch: 36.0783°
orbit number at epoch: 735

The dashed part of the orbit path shows where the satellite is in the earth's shadow,  

DLR